EW5010 Weather Reports


Display with metric or nautical units.
time (UTC)temp
F
wind
direction
speed
MPH
gust
MPH
rain 1hr
in
rain 24hr
in
rain mn
in
humidity
%
barometer
mb
20260505180908 80 157 2.0 9.0 0.00 0.00 0.00 72 1005.1
20260505180405 80 151 5.0 11.0 0.00 0.00 0.00 72 1004.9
20260505175902 80 156 3.0 12.0 0.00 0.00 0.00 72 1004.8
20260505175358 81 159 6.0 11.0 0.00 0.00 0.00 70 1004.8
20260505174854 81 198 5.0 8.0 0.00 0.00 0.00 72 1005.1
20260505174352 80 139 5.0 6.0 0.00 0.00 0.00 72 1005.1
20260505173848 79 180 4.0 10.0 0.00 0.00 0.00 74 1005.0
20260505173344 79 144 8.0 11.0 0.00 0.00 0.00 75 1005.0
20260505172842 80 151 4.0 9.0 0.00 0.00 0.00 74 1004.9
20260505172339 79 151 3.0 10.0 0.00 0.00 0.00 74 1005.0
20260505171839 79 155 7.0 9.0 0.00 0.00 0.00 75 1005.0
20260505171336 78 174 3.0 8.0 0.00 0.00 0.00 75 1005.1
20260505170832 79 154 8.0 11.0 0.00 0.00 0.00 73 1004.9
20260505170329 79 159 5.0 13.0 0.00 0.00 0.00 74 1005.1
20260505165825 79 194 2.0 9.0 0.00 0.00 0.00 74 1005.4
20260505165320 78 146 4.0 9.0 0.00 0.00 0.00 74 1005.2
20260505164816 78 179 2.0 11.0 0.00 0.00 0.00 75 1005.0
20260505164313 79 200 7.0 13.0 0.00 0.00 0.00 73 1005.2
20260505163812 78 180 6.0 14.0 0.00 0.00 0.00 75 1005.2
20260505163310 78 167 4.0 11.0 0.00 0.00 0.00 75 1005.1
20260505162808 78 147 7.0 12.0 0.00 0.00 0.00 74 1005.1
20260505162306 78 154 7.0 9.0 0.00 0.00 0.00 75 1004.8
20260505161801 77 164 6.0 10.0 0.00 0.00 0.00 76 1004.8
20260505161258 77 160 6.0 10.0 0.00 0.00 0.00 77 1004.7
20260505160755 77 169 9.0 13.0 0.00 0.00 0.00 77 1004.9
20260505160253 76 157 7.0 10.0 0.00 0.00 0.00 78 1004.7
20260505153232 76 179 2.0 8.0 0.00 0.00 0.00 79 1004.9
20260505152729 76 148 9.0 11.0 0.00 0.00 0.00 79 1005.1
20260505152226 75 161 3.0 11.0 0.00 0.00 0.00 80 1005.1
20260505151725 75 189 5.0 6.0 0.00 0.00 0.00 80 1005.3
20260505151223 75 158 4.0 11.0 0.00 0.00 0.00 80 1005.0
20260505150719 75 202 8.0 11.0 0.00 0.00 0.00 81 1005.0
20260505150217 75 182 6.0 9.0 0.00 0.00 0.00 80 1005.1
20260505140650 73 154 10.0 11.0 0.00 0.00 0.00 84 1004.9
20260505140147 73 154 3.0 13.0 0.00 0.00 0.00 84 1004.7
20260505130112 72 163 7.0 14.0 0.00 0.00 0.00 85 1004.6
20260505124601 72 197 7.0 11.0 0.00 0.00 0.00 85 1004.7
20260505124057 72 172 7.0 10.0 0.00 0.00 0.00 85 1004.3
20260505123553 72 154 8.0 11.0 0.00 0.00 0.00 85 1004.2
20260505123050 72 176 5.0 11.0 0.00 0.00 0.00 85 1004.1
20260505122547 72 173 4.0 14.0 0.00 0.00 0.00 84 1004.2
20260505122044 72 143 2.0 9.0 0.00 0.00 0.00 85 1004.3
20260505121540 72 164 3.0 13.0 0.00 0.00 0.00 85 1004.2
20260505121037 72 158 3.0 10.0 0.00 0.00 0.00 85 1003.9
20260505120534 72 199 4.0 10.0 0.00 0.00 0.00 85 1004.0
20260505120029 72 149 3.0 10.0 0.00 0.00 0.00 85 1004.1
20260505115524 71 151 6.0 9.0 0.00 0.00 0.00 85 1003.9
20260505115022 72 132 3.0 10.0 0.00 0.00 0.00 85 1004.0
20260505114519 72 168 4.0 10.0 0.00 0.00 0.00 85 1003.8
20260505114015 71 171 3.0 10.0 0.00 0.00 0.00 85 1004.0
20260505113512 71 175 4.0 8.0 0.00 0.00 0.00 85 1004.0
20260505113008 71 184 4.0 14.0 0.00 0.00 0.00 85 1003.9
20260505112504 71 197 5.0 13.0 0.00 0.00 0.00 85 1003.9
20260505112002 71 198 3.0 7.0 0.00 0.00 0.00 85 1004.0
20260505111456 71 151 7.0 17.0 0.00 0.00 0.00 85 1004.0
20260505110952 71 178 4.0 9.0 0.00 0.00 0.00 85 1003.8
20260505110449 71 155 2.0 9.0 0.00 0.00 0.00 85 1004.0
20260505101921 71 163 5.0 14.0 0.00 0.00 0.00 85 1004.0
20260505101421 71 147 7.0 15.0 0.00 0.00 0.00 85 1004.1
20260505100916 71 168 5.0 13.0 0.00 0.00 0.00 85 1004.0
20260505100414 71 160 8.0 13.0 0.00 0.00 0.00 85 1003.9
20260505095909 71 152 9.0 10.0 0.00 0.00 0.00 85 1004.0
20260505095406 71 150 7.0 12.0 0.00 0.00 0.00 85 1004.1
20260505094902 72 146 9.0 12.0 0.00 0.00 0.00 85 1004.1
20260505094400 72 136 4.0 13.0 0.00 0.00 0.00 84 1004.5
20260505093855 72 178 5.0 10.0 0.00 0.00 0.00 84 1004.2
20260505093353 72 161 8.0 10.0 0.00 0.00 0.00 84 1004.5
20260505092850 71 165 3.0 10.0 0.00 0.00 0.00 84 1004.5
20260505092348 72 201 4.0 10.0 0.00 0.00 0.00 84 1004.5
20260505091845 71 148 4.0 11.0 0.00 0.00 0.00 84 1004.5
20260505091343 71 206 6.0 8.0 0.00 0.00 0.00 84 1004.3
20260505090841 71 161 4.0 11.0 0.00 0.00 0.00 85 1004.2
20260505090339 71 160 4.0 9.0 0.00 0.00 0.00 84 1004.3
20260505085835 71 166 5.0 12.0 0.00 0.00 0.00 84 1004.5
20260505085333 71 180 6.0 10.0 0.00 0.00 0.00 84 1004.6
20260505084831 71 148 5.0 13.0 0.00 0.00 0.00 84 1004.5
20260505084329 71 163 8.0 13.0 0.00 0.00 0.00 84 1004.3
20260505083826 71 180 7.0 11.0 0.00 0.00 0.00 85 1004.5
20260505083324 71 168 4.0 15.0 0.00 0.00 0.00 85 1004.5
20260505082820 71 159 10.0 15.0 0.00 0.00 0.00 85 1004.5
20260505082316 71 208 2.0 11.0 0.00 0.00 0.00 85 1004.7
20260505081813 71 149 9.0 15.0 0.00 0.00 0.00 85 1004.3
20260505081310 71 192 4.0 20.0 0.00 0.00 0.00 85 1004.3
20260505080806 71 147 5.0 13.0 0.00 0.00 0.00 84 1004.5
20260505080302 71 160 6.0 16.0 0.00 0.00 0.00 84 1004.8
20260505075758 71 151 7.0 13.0 0.00 0.00 0.00 85 1004.9
20260505075255 71 170 4.0 15.0 0.00 0.00 0.00 85 1004.9
20260505074752 71 147 11.0 13.0 0.00 0.00 0.00 85 1004.9
20260505074249 71 165 6.0 12.0 0.00 0.00 0.00 85 1005.0
20260505073747 71 170 6.0 9.0 0.00 0.00 0.00 85 1005.2
20260505073245 71 149 7.0 14.0 0.00 0.00 0.00 85 1005.1
20260505072741 71 148 10.0 12.0 0.00 0.00 0.00 85 1005.1
20260505072237 71 176 6.0 16.0 0.00 0.00 0.00 85 1005.1
20260505071733 71 148 8.0 13.0 0.00 0.00 0.00 84 1005.1
20260505071230 71 163 6.0 12.0 0.00 0.00 0.00 84 1005.3
20260505070728 71 153 4.0 10.0 0.00 0.00 0.00 84 1005.5
20260505070224 71 145 6.0 12.0 0.00 0.00 0.00 84 1005.5
20260505065720 71 153 8.0 10.0 0.00 0.00 0.00 83 1005.3
20260505065217 71 183 3.0 11.0 0.00 0.00 0.00 83 1005.5
20260505064714 71 168 2.0 11.0 0.00 0.00 0.00 83 1005.4
20260505064212 71 157 7.0 12.0 0.00 0.00 0.00 84 1005.6
20260505063709 71 152 5.0 12.0 0.00 0.00 0.00 83 1005.6
20260505063205 72 149 14.0 15.0 0.00 0.00 0.00 83 1005.5
20260505062701 72 156 6.0 12.0 0.00 0.00 0.00 83 1005.5
20260505062159 72 145 5.0 19.0 0.00 0.00 0.00 83 1005.4
20260505061656 72 167 10.0 17.0 0.00 0.00 0.00 83 1005.5
20260505061154 72 153 10.0 13.0 0.00 0.00 0.00 82 1005.5
20260505060651 72 171 4.0 14.0 0.00 0.00 0.00 82 1005.9
20260505060147 72 161 5.0 14.0 0.00 0.00 0.00 82 1005.8
20260505055643 72 148 8.0 14.0 0.00 0.00 0.00 82 1006.0
20260505055140 72 151 11.0 15.0 0.00 0.00 0.00 81 1005.8
20260505054637 72 151 13.0 15.0 0.00 0.00 0.00 81 1005.8
20260505054135 72 157 7.0 15.0 0.00 0.00 0.00 81 1005.8
20260505053632 72 145 10.0 12.0 0.00 0.00 0.00 81 1006.0
20260505053128 72 161 6.0 14.0 0.00 0.00 0.00 81 1006.1
20260505052626 72 155 10.0 16.0 0.00 0.00 0.00 81 1006.1
20260505052123 72 153 9.0 15.0 0.00 0.00 0.00 81 1006.0
20260505051620 72 147 17.0 17.0 0.00 0.00 0.00 80 1006.0
20260505051118 72 145 7.0 15.0 0.00 0.00 0.00 80 1006.2
20260505050615 72 146 11.0 15.0 0.00 0.00 0.00 79 1006.0
20260505050114 73 148 13.0 17.0 0.00 0.00 0.00 79 1006.1
20260505041543 73 149 11.0 16.0 0.00 0.00 0.00 77 1006.5
20260505041041 73 149 8.0 14.0 0.00 0.00 0.00 76 1006.5
20260505040538 73 161 6.0 16.0 0.00 0.00 0.00 76 1006.7
20260505040035 73 149 10.0 15.0 0.00 0.00 0.00 76 1006.4
20260505035531 74 150 11.0 17.0 0.00 0.00 0.00 76 1006.3
20260505035028 73 154 9.0 14.0 0.00 0.00 0.00 76 1006.5
20260505034524 74 148 12.0 15.0 0.00 0.00 0.00 76 1006.3
20260505034021 74 170 7.0 17.0 0.00 0.00 0.00 76 1006.2
20260505033518 73 167 9.0 15.0 0.00 0.00 0.00 76 1006.3
20260505033016 74 151 10.0 14.0 0.00 0.00 0.00 76 1006.4
20260505032514 74 144 9.0 14.0 0.00 0.00 0.00 76 1006.2
20260505032010 74 168 6.0 13.0 0.00 0.00 0.00 75 1006.2
20260505031508 74 152 8.0 15.0 0.00 0.00 0.00 75 1006.3
20260505031004 74 155 8.0 13.0 0.00 0.00 0.00 75 1006.2
20260505030501 74 144 12.0 15.0 0.00 0.00 0.00 74 1006.4
20260505025955 74 154 11.0 13.0 0.00 0.00 0.00 74 1006.4
20260505025453 74 144 7.0 15.0 0.00 0.00 0.00 74 1006.3
20260505024952 74 151 9.0 16.0 0.00 0.00 0.00 74 1006.2
20260505024448 74 155 7.0 12.0 0.00 0.00 0.00 74 1006.5
20260505023946 74 147 12.0 15.0 0.00 0.00 0.00 74 1006.3
20260505023442 74 151 11.0 13.0 0.00 0.00 0.00 74 1006.1
20260505022940 74 151 11.0 14.0 0.00 0.00 0.00 74 1005.9
20260505022437 74 144 13.0 13.0 0.00 0.00 0.00 73 1006.2
20260505021934 74 164 7.0 11.0 0.00 0.00 0.00 74 1006.4
20260505021431 74 154 9.0 10.0 0.00 0.00 0.00 73 1006.2
20260505020926 74 162 8.0 12.0 0.00 0.00 0.00 73 1006.0
20260505020422 74 149 10.0 11.0 0.00 0.00 0.00 73 1006.1
20260505015919 74 150 9.0 13.0 0.00 0.00 0.00 73 1005.9
20260505015416 74 154 7.0 13.0 0.00 0.00 0.00 73 1006.1
20260505014914 74 151 11.0 12.0 0.00 0.00 0.00 73 1006.1
20260505014410 75 145 8.0 11.0 0.00 0.00 0.00 72 1006.2
20260505013907 75 148 7.0 11.0 0.00 0.00 0.00 72 1006.3
20260505013404 75 152 7.0 13.0 0.00 0.00 0.00 72 1006.2
20260505012902 75 150 7.0 13.0 0.00 0.00 0.00 72 1006.2
20260505012400 75 149 4.0 15.0 0.00 0.00 0.00 72 1005.9
20260505011856 75 153 7.0 12.0 0.00 0.00 0.00 72 1006.0
20260505011353 75 151 12.0 14.0 0.00 0.00 0.00 72 1006.0
20260505010849 75 148 11.0 15.0 0.00 0.00 0.00 71 1006.1
20260505010345 75 146 8.0 12.0 0.00 0.00 0.00 71 1006.1
20260505005841 75 146 9.0 15.0 0.00 0.00 0.00 71 1005.9
20260505005338 75 162 8.0 14.0 0.00 0.00 0.00 71 1006.3
20260505004836 75 156 8.0 13.0 0.00 0.00 0.00 70 1006.2
20260505004332 75 149 11.0 13.0 0.00 0.00 0.00 69 1006.2
20260505003829 76 144 9.0 12.0 0.00 0.00 0.00 70 1006.2
20260505003326 76 155 10.0 15.0 0.00 0.00 0.00 69 1006.1
20260505002822 76 152 7.0 13.0 0.00 0.00 0.00 68 1006.1
20260505002319 77 173 7.0 12.0 0.00 0.00 0.00 67 1006.1
20260505001818 77 147 3.0 10.0 0.00 0.00 0.00 65 1006.3
20260505001314 77 164 7.0 9.0 0.00 0.00 0.00 65 1006.3
20260505000812 77 157 4.0 11.0 0.00 0.00 0.00 64 1006.2
20260505000310 77 194 3.0 9.0 0.00 0.00 0.00 64 1006.2
20260504235806 78 158 4.0 11.0 0.00 0.00 0.00 63 1006.3
20260504235304 78 196 5.0 8.0 0.00 0.00 0.00 63 1006.3
20260504234759 78 167 5.0 11.0 0.00 0.00 0.00 63 1006.6
20260504234257 78 159 4.0 9.0 0.00 0.00 0.00 62 1006.4
20260504233753 78 181 4.0 10.0 0.00 0.00 0.00 62 1006.3
20260504233249 78 154 5.0 8.0 0.00 0.00 0.00 63 1006.3
20260504232746 77 182 5.0 10.0 0.00 0.00 0.00 63 1006.5
20260504232243 78 153 7.0 14.0 0.00 0.00 0.00 65 1006.3
20260504231740 78 158 4.0 11.0 0.00 0.00 0.00 62 1006.8
20260504231236 78 159 4.0 14.0 0.00 0.00 0.00 61 1006.7
20260504230732 79 153 8.0 11.0 0.00 0.00 0.00 62 1006.6
20260504230231 79 175 6.0 11.0 0.00 0.00 0.00 61 1006.9
20260504225729 79 179 4.0 10.0 0.00 0.00 0.00 60 1006.9
20260504225225 79 178 4.0 13.0 0.00 0.00 0.00 60 1007.0
20260504224722 79 148 1.0 13.0 0.00 0.00 0.00 61 1006.9
20260504224220 78 160 9.0 11.0 0.00 0.00 0.00 62 1006.9
20260504223716 78 147 7.0 13.0 0.00 0.00 0.00 65 1006.7
20260504223211 78 146 9.0 15.0 0.00 0.00 0.00 64 1006.7
20260504222709 78 147 7.0 12.0 0.00 0.00 0.00 64 1006.8
20260504222206 78 150 5.0 10.0 0.00 0.00 0.00 64 1006.8
20260504221703 78 151 8.0 13.0 0.00 0.00 0.00 62 1007.0
20260504221200 79 150 5.0 10.0 0.00 0.00 0.00 60 1007.2
20260504220656 79 151 6.0 10.0 0.00 0.00 0.00 61 1007.2
20260504220154 78 151 9.0 14.0 0.00 0.00 0.00 63 1007.1
20260504215650 79 142 9.0 17.0 0.00 0.00 0.00 62 1007.3
20260504215148 79 147 11.0 11.0 0.00 0.00 0.00 59 1007.3
20260504214643 79 162 2.0 11.0 0.00 0.00 0.00 60 1007.3
20260504214140 78 154 7.0 11.0 0.00 0.00 0.00 62 1007.5
20260504213637 77 154 7.0 13.0 0.00 0.00 0.00 65 1007.4
20260504213133 78 147 12.0 17.0 0.00 0.00 0.00 62 1007.6
20260504212630 79 151 8.0 13.0 0.00 0.00 0.00 61 1007.5
20260504212127 78 179 5.0 11.0 0.00 0.00 0.00 61 1007.9
20260504211624 78 168 9.0 14.0 0.00 0.00 0.00 61 1007.8
20260504211120 78 177 3.0 9.0 0.00 0.00 0.00 60 1008.0
20260504210618 78 163 4.0 13.0 0.00 0.00 0.00 62 1008.0
20260504210114 79 157 9.0 11.0 0.00 0.00 0.00 60 1008.2
20260504205612 77 160 9.0 13.0 0.00 0.00 0.00 62 1008.2
20260504205110 78 144 7.0 12.0 0.00 0.00 0.00 61 1008.3
20260504204608 78 149 9.0 13.0 0.00 0.00 0.00 60 1008.6
20260504204106 78 167 6.0 12.0 0.00 0.00 0.00 59 1008.6
20260504203605 77 152 11.0 15.0 0.00 0.00 0.00 60 1008.6
20260504203102 78 154 5.0 12.0 0.00 0.00 0.00 61 1008.8
20260504202556 78 150 13.0 16.0 0.00 0.00 0.00 60 1008.8
20260504202054 78 171 5.0 13.0 0.00 0.00 0.00 57 1009.0
20260504201551 78 175 5.0 15.0 0.00 0.00 0.00 57 1009.2
20260504201049 78 146 11.0 16.0 0.00 0.00 0.00 58 1009.2
20260504200544 77 147 13.0 17.0 0.00 0.00 0.00 58 1009.4
20260504200042 77 152 9.0 17.0 0.00 0.00 0.00 57 1009.5
20260504195537 77 159 6.0 10.0 0.00 0.00 0.00 60 1009.5
20260504195034 78 152 9.0 12.0 0.00 0.00 0.00 59 1009.5
20260504194531 77 155 6.0 13.0 0.00 0.00 0.00 57 1009.7
20260504194026 77 159 7.0 17.0 0.00 0.00 0.00 61 1009.4
20260504193523 77 154 13.0 17.0 0.00 0.00 0.00 59 1009.6
20260504193022 77 162 7.0 15.0 0.00 0.00 0.00 59 1009.7
20260504192520 78 165 4.0 9.0 0.00 0.00 0.00 56 1009.9
20260504192018 78 202 3.0 9.0 0.00 0.00 0.00 58 1010.0
20260504191515 77 161 4.0 11.0 0.00 0.00 0.00 58 1010.2
20260504191011 77 167 8.0 11.0 0.00 0.00 0.00 58 1010.2
20260504190507 76 154 8.0 12.0 0.00 0.00 0.00 59 1010.1
20260504190004 76 174 6.0 16.0 0.00 0.00 0.00 59 1010.3
20260504185501 76 163 6.0 12.0 0.00 0.00 0.00 57 1010.1
20260504184957 76 152 10.0 14.0 0.00 0.00 0.00 58 1010.3
20260504184453 76 163 8.0 15.0 0.00 0.00 0.00 58 1010.5
20260504183948 76 173 4.0 13.0 0.00 0.00 0.00 57 1010.6
20260504183446 75 151 12.0 15.0 0.00 0.00 0.00 58 1010.5
20260504182944 75 147 19.0 19.0 0.00 0.00 0.00 59 1010.6
20260504182440 75 153 12.0 16.0 0.00 0.00 0.00 56 1010.8
20260504181938 75 148 17.0 22.0 0.00 0.00 0.00 56 1010.9
20260504181435 76 148 11.0 12.0 0.00 0.00 0.00 58 1010.7